| time (UTC) | temp C | wind direction | speed KPH | gust KPH | rain 1hr cm | rain 24hr cm | rain mn cm | humidity % | barometer mb |
| 20260906124533 | 23 | 294 | 0.0 | 0.0 | 0.00 | 0.15 | 0.00 | 95 | 1013.8 |
| 20260906123033 | 22 | 294 | 0.0 | 0.0 | 0.00 | 0.00 | 0.00 | 95 | 1013.9 |
| 20260906121530 | 22 | 294 | 0.0 | 0.0 | 0.00 | 0.15 | 0.00 | 96 | 1013.6 |
| 20260906120030 | 22 | 294 | 0.0 | 0.0 | 0.00 | 0.15 | 0.00 | 96 | 1013.4 |
| 20260906114530 | 22 | 294 | 0.0 | 0.0 | 0.00 | 0.15 | 0.00 | 95 | 1013.2 |
| 20260906113029 | 22 | 294 | 0.0 | 0.0 | 0.00 | 0.15 | 0.00 | 95 | 1013.2 |
| 20260906111531 | 22 | 293 | 0.0 | 0.0 | 0.00 | 0.15 | 0.00 | 95 | 1013.2 |
| 20260906110032 | 22 | 294 | 0.0 | 1.6 | 0.00 | 0.15 | 0.00 | 95 | 1013.2 |
| 20260906104536 | 22 | 294 | 0.0 | 1.6 | 0.00 | 0.15 | 0.00 | 96 | 1013.3 |
| 20260906103033 | 22 | 294 | 0.0 | 0.0 | 0.00 | 0.15 | 0.00 | 96 | 1013.0 |
| 20260906101531 | 21 | 294 | 0.0 | 0.0 | 0.00 | 0.15 | 0.00 | 96 | 1013.0 |
| 20260906100024 | 22 | 294 | 0.0 | 1.6 | 0.00 | 0.15 | 0.00 | 96 | 1013.2 |
| 20260906094525 | 22 | 146 | 0.0 | 0.0 | 0.00 | 0.15 | 0.00 | 96 | 1013.3 |
| 20260906093024 | 22 | 147 | 0.0 | 1.6 | 0.00 | 0.15 | 0.00 | 96 | 1013.2 |
| 20260906091522 | 22 | 147 | 0.0 | 0.0 | 0.00 | 0.15 | 0.00 | 96 | 1013.0 |
| 20260906090024 | 22 | 146 | 0.0 | 0.0 | 0.00 | 0.15 | 0.00 | 96 | 1012.9 |
| 20260906084519 | 22 | 147 | 0.0 | 1.6 | 0.00 | 0.15 | 0.00 | 96 | 1012.9 |
| 20260906083018 | 22 | 146 | 0.0 | 1.6 | 0.00 | 0.15 | 0.00 | 96 | 1012.7 |
| 20260906081516 | 22 | 147 | 0.0 | 0.0 | 0.00 | 0.15 | 0.00 | 95 | 1012.7 |
| 20260906080016 | 22 | 146 | 0.0 | 1.6 | 0.00 | 0.15 | 0.00 | 95 | 1012.7 |
| 20260906074514 | 22 | 147 | 0.0 | 0.0 | 0.00 | 0.15 | 0.00 | 94 | 1012.6 |
| 20260906073020 | 22 | 147 | 0.0 | 0.0 | 0.00 | 0.15 | 0.00 | 94 | 1012.7 |
| 20260906071512 | 22 | 147 | 0.0 | 1.6 | 0.00 | 0.15 | 0.00 | 94 | 1012.7 |
| 20260906070011 | 22 | 145 | 0.0 | 0.0 | 0.00 | 0.15 | 0.00 | 93 | 1012.8 |
| 20260906064509 | 22 | 145 | 0.0 | 0.0 | 0.00 | 0.15 | 0.00 | 93 | 1012.7 |
| 20260906063007 | 22 | 145 | 0.0 | 1.6 | 0.00 | 0.15 | 0.00 | 93 | 1013.0 |
| 20260906061506 | 22 | 226 | 0.0 | 1.6 | 0.00 | 0.15 | 0.00 | 92 | 1013.0 |
| 20260906060002 | 22 | 226 | 0.0 | 1.6 | 0.00 | 0.15 | 0.00 | 91 | 1013.3 |
| 20260906054502 | 22 | 228 | 0.0 | 1.6 | 0.00 | 0.15 | 0.00 | 91 | 1013.3 |
| 20260906053001 | 22 | 228 | 0.0 | 0.0 | 0.00 | 0.15 | 0.00 | 90 | 1013.3 |
| 20260906051600 | 23 | 228 | 0.0 | 0.0 | 0.00 | 0.15 | 0.00 | 90 | 1013.5 |
| 20260906050120 | 22 | 228 | 0.0 | 1.6 | 0.00 | 0.15 | 0.00 | 90 | 1013.5 |
| 20260906044556 | 22 | 228 | 0.0 | 0.0 | 0.00 | 0.15 | 0.00 | 91 | 1013.4 |
| 20260906043058 | 22 | 228 | 0.0 | 1.6 | 0.00 | 0.15 | 0.00 | 91 | 1013.5 |
| 20260906041555 | 22 | 228 | 0.0 | 0.0 | 0.00 | 0.15 | 0.00 | 91 | 1013.4 |
| 20260906040058 | 23 | 228 | 0.0 | 1.6 | 0.00 | 0.15 | 0.00 | 91 | 1013.4 |
| 20260906034552 | 22 | 228 | 0.0 | 1.6 | 0.00 | 0.15 | 0.15 | 91 | 1013.5 |
| 20260906033102 | 22 | 228 | 0.0 | 0.0 | 0.00 | 0.15 | 0.15 | 92 | 1013.5 |
| 20260906031550 | 22 | 228 | 0.0 | 0.0 | 0.00 | 0.15 | 0.15 | 92 | 1014.0 |
| 20260906030050 | 22 | 228 | 0.0 | 1.6 | 0.00 | 0.15 | 0.15 | 92 | 1014.1 |
| 20260906024552 | 22 | 228 | 0.0 | 1.6 | 0.00 | 0.15 | 0.15 | 94 | 1014.1 |
| 20260906023049 | 22 | 228 | 0.0 | 1.6 | 0.00 | 0.15 | 0.15 | 95 | 1014.3 |
| 20260906021553 | 22 | 228 | 0.0 | 1.6 | 0.00 | 0.15 | 0.15 | 95 | 1014.3 |
| 20260906020053 | 22 | 226 | 0.0 | 0.0 | 0.00 | 0.15 | 0.15 | 95 | 1014.1 |
| 20260906014555 | 22 | 226 | 0.0 | 1.6 | 0.00 | 0.15 | 0.15 | 95 | 1014.0 |
| 20260906013049 | 23 | 226 | 0.0 | 1.6 | 0.00 | 0.15 | 0.15 | 95 | 1013.8 |
| 20260906011546 | 23 | 226 | 0.0 | 0.0 | 0.00 | 0.15 | 0.15 | 95 | 1013.7 |
| 20260906010045 | 23 | 226 | 0.0 | 1.6 | 0.00 | 0.15 | 0.15 | 94 | 1013.3 |
| 20260906004545 | 22 | 243 | 1.6 | 3.2 | 0.00 | 0.15 | 0.15 | 94 | 1012.8 |
| 20260906003045 | 22 | 232 | 0.0 | 3.2 | 0.00 | 0.15 | 0.15 | 94 | 1012.5 |
| 20260906001545 | 22 | 247 | 0.0 | 3.2 | 0.00 | 0.15 | 0.15 | 94 | 1012.3 |
| 20260906000044 | 22 | 122 | 0.0 | 4.8 | 0.00 | 0.15 | 0.15 | 93 | 1011.8 |
| 20260905234545 | 22 | 339 | 0.0 | 1.6 | 0.05 | 0.15 | 0.15 | 94 | 1010.6 |
| 20260905233043 | 22 | 122 | 0.0 | 1.6 | 0.15 | 0.15 | 0.15 | 93 | 1010.3 |
| 20260905231544 | 22 | 126 | 1.6 | 4.8 | 0.15 | 0.15 | 0.15 | 92 | 1011.5 |
| 20260905230053 | 22 | 105 | 6.4 | 20.9 | 0.15 | 0.15 | 0.15 | 90 | 1012.2 |
| 20260905224535 | 25 | 93 | 12.9 | 43.5 | 0.10 | 0.10 | 0.10 | 86 | 1012.8 |
| 20260905223035 | 32 | 94 | 9.7 | 20.9 | 0.00 | 0.00 | 0.00 | 57 | 1012.1 |
| 20260905221536 | 37 | 285 | 1.6 | 6.4 | 0.00 | 0.00 | 0.00 | 46 | 1010.8 |
| 20260905220032 | 37 | 326 | 1.6 | 4.8 | 0.00 | 0.00 | 0.00 | 46 | 1010.6 |
| 20260905214535 | 37 | 269 | 0.0 | 3.2 | 0.00 | 0.00 | 0.00 | 45 | 1010.5 |
| 20260905213030 | 37 | 22 | 0.0 | 3.2 | 0.00 | 0.00 | 0.00 | 47 | 1010.5 |
| 20260905211536 | 36 | 269 | 0.0 | 4.8 | 0.00 | 0.00 | 0.00 | 49 | 1010.6 |
| 20260905210025 | 37 | 239 | 0.0 | 3.2 | 0.00 | 0.00 | 0.00 | 49 | 1011.0 |
| 20260905204522 | 36 | 302 | 1.6 | 6.4 | 0.00 | 0.00 | 0.00 | 49 | 1011.2 |
| 20260905203020 | 36 | 17 | 0.0 | 8.0 | 0.00 | 0.00 | 0.00 | 47 | 1011.4 |
| 20260905201517 | 36 | 293 | 1.6 | 6.4 | 0.00 | 0.00 | 0.00 | 48 | 1011.5 |
| 20260905200015 | 36 | 3 | 0.0 | 4.8 | 0.00 | 0.00 | 0.00 | 48 | 1011.8 |
| 20260905194510 | 35 | 60 | 0.0 | 4.8 | 0.00 | 0.00 | 0.00 | 50 | 1012.0 |
| 20260905193007 | 35 | 66 | 1.6 | 6.4 | 0.00 | 0.00 | 0.00 | 50 | 1012.1 |
| 20260905191506 | 35 | 116 | 3.2 | 6.4 | 0.00 | 0.00 | 0.00 | 51 | 1012.2 |
| 20260905190002 | 34 | 188 | 0.0 | 3.2 | 0.00 | 0.00 | 0.00 | 52 | 1012.6 |
| 20260905184603 | 34 | 305 | 1.6 | 6.4 | 0.00 | 0.00 | 0.00 | 52 | 1012.8 |
| 20260905183100 | 34 | 285 | 1.6 | 4.8 | 0.00 | 0.00 | 0.00 | 53 | 1013.1 |
| 20260905181554 | 33 | 112 | 1.6 | 11.3 | 0.00 | 0.00 | 0.00 | 53 | 1013.2 |
| 20260905180051 | 33 | 112 | 4.8 | 8.0 | 0.00 | 0.00 | 0.00 | 54 | 1013.4 |
| 20260905174548 | 33 | 114 | 1.6 | 8.0 | 0.00 | 0.00 | 0.00 | 55 | 1013.5 |
| 20260905173045 | 33 | 273 | 0.0 | 6.4 | 0.00 | 0.00 | 0.00 | 56 | 1013.8 |
| 20260905171541 | 33 | 295 | 1.6 | 8.0 | 0.00 | 0.00 | 0.00 | 57 | 1014.0 |
| 20260905170038 | 33 | 291 | 1.6 | 8.0 | 0.00 | 0.00 | 0.00 | 59 | 1014.0 |
| 20260905164536 | 32 | 110 | 1.6 | 9.7 | 0.00 | 0.00 | 0.00 | 59 | 1014.3 |
| 20260905163033 | 32 | 305 | 0.0 | 9.7 | 0.00 | 0.00 | 0.00 | 59 | 1014.5 |
| 20260905161531 | 32 | 297 | 1.6 | 9.7 | 0.00 | 0.00 | 0.00 | 61 | 1014.7 |
| 20260905160029 | 32 | 118 | 0.0 | 8.0 | 0.00 | 0.00 | 0.00 | 61 | 1014.9 |
| 20260905154525 | 31 | 122 | 0.0 | 4.8 | 0.00 | 0.00 | 0.00 | 62 | 1015.0 |
| 20260905153024 | 31 | 37 | 0.0 | 4.8 | 0.00 | 0.00 | 0.00 | 65 | 1015.1 |
| 20260905151520 | 30 | 240 | 0.0 | 3.2 | 0.00 | 0.00 | 0.00 | 67 | 1015.2 |
| 20260905150017 | 30 | 355 | 0.0 | 4.8 | 0.00 | 0.00 | 0.00 | 69 | 1015.2 |
| 20260905144517 | 30 | 282 | 0.0 | 4.8 | 0.00 | 0.00 | 0.00 | 69 | 1015.2 |
| 20260905143011 | 29 | 273 | 0.0 | 3.2 | 0.00 | 0.00 | 0.00 | 72 | 1015.4 |
| 20260905141509 | 28 | 278 | 0.0 | 4.8 | 0.00 | 0.00 | 0.00 | 74 | 1015.5 |
| 20260905140005 | 27 | 280 | 0.0 | 3.2 | 0.00 | 0.00 | 0.00 | 76 | 1015.5 |
| 20260905134601 | 27 | 13 | 0.0 | 1.6 | 0.00 | 0.00 | 0.00 | 77 | 1015.5 |
| 20260905133058 | 26 | 296 | 1.6 | 4.8 | 0.00 | 0.00 | 0.00 | 81 | 1015.7 |
| 20260905131558 | 26 | 328 | 0.0 | 1.6 | 0.00 | 0.00 | 0.00 | 84 | 1015.9 |
| 20260905130057 | 25 | 107 | 0.0 | 1.6 | 0.00 | 0.00 | 0.00 | 86 | 1015.9 |